Regional Weather Roundup
Issued by NWS

Home | Current Version | Previous Version | Graphics & Text | Print | Product List | Glossary On
Versions: 1 2 3 4 5 6 7 8 9 10 11 12 13 14 15 16 17 18 19 20 21 22 23 24 25 26 27 28 29 30 31 32 33 34 35 36 37 38 39 40 41 42 43 44 45 46 47 48 49 50
000
ASUS43 KMPX 231201
RWRMN
WEATHER ROUNDUP FOR MINNESOTA
NATIONAL WEATHER SERVICE TWIN CITIES/CHANHASSEN MN
700 AM CDT WED APR 23 2014


NOTE: "FAIR" INDICATES FEW OR NO CLOUDS BELOW 12,000 FEET WITH NO
SIGNIFICANT WEATHER AND/OR OBSTRUCTIONS TO VISIBILITY. N/A MEANS
CURRENT SKY AND/OR WEATHER CONDITIONS ARE NOT AVAILABLE.

MNZ060>063-068>070-231300-
   Twin Cities Metro

CITY           SKY/WX    TMP DP  RH WIND       PRES   REMARKS
TWIN CITIES    CLOUDY    42  27  55 SE13      30.10R
6HR MIN TEMP:  42; 6HR MAX TEMP:  46;

ST PAUL        CLOUDY    43  28  55 SE10      30.11S
CRYSTAL        CLOUDY    45  26  47 SE10G18   30.08S
BLAINE         CLOUDY    45  27  49 SE8       30.09S
EDEN PRAIRIE   CLOUDY    44  27  51 SE12      30.08S
6HR MIN TEMP:  44; 6HR MAX TEMP:  46;

LAKEVILLE      CLOUDY    41  28  60 SE8       30.09R
SOUTH ST PAUL  CLOUDY    46  28  49 SE8       30.10S
LAKE ELMO      FAIR      41  28  60 SE5       30.11S
$$
MNZ001>005-007-008-013>017-022>024-027-028-231300-
   Northwest Minnesota

CITY           SKY/WX    TMP DP  RH WIND       PRES   REMARKS
BEMIDJI        CLOUDY    33  23  65 SE7       30.02F WCI  27
HALLOCK        CLOUDY    43  25  49 SE15      29.94F
ROSEAU         PTCLDY    39  25  56 SE10      30.02R
WARROAD        PTCLDY    36  27  69 SE9       30.04S
THIEF RVR FALL CLOUDY    37  23  56 E12       29.97F
CROOKSTON      CLOUDY    45  28  53 SE12      29.95F
FOSSTON        CLOUDY    41  21  45 SE8       29.97F
DETROIT LAKES  CLOUDY    43  28  56 SE10      29.97S
MOORHEAD       CLOUDY    46  32  57 S12       29.94S
PARK RAPIDS    CLOUDY    40  24  53 SE10      30.00F
$$
MNZ006-009>011-018-025>026-231300-
   North Central Minnesota

CITY           SKY/WX    TMP DP  RH WIND       PRES   REMARKS
BAUDETTE       CLEAR     33  23  66 SE6       30.05S WCI  28
FLAG ISLAND    CLEAR     36  21  55 SE5       30.05R
INTL FALLS     CLEAR     28  22  78 SE7       30.08S WCI  21
6HR MIN TEMP:  24; 6HR MAX TEMP:  29;

WASKISH        MOCLDY    34  23  64 E5        30.05S WCI  30
BIG FORK       MOCLDY    30  23  74 SE3       30.08S
LONGVILLE      CLOUDY    30  25  80 CALM      30.05F
GRAND RAPIDS   CLOUDY    34  19  55 E5        30.07F WCI  30
CRANE LAKE     CLEAR     19  16  86 CALM      30.13S
ORR            CLEAR     27  21  80 E3        30.07S
COOK           CLEAR     25  23  93 CALM      30.10S
$$
MNZ012-019>021-037-231300-
   Northeast Minnesota

CITY           SKY/WX    TMP DP  RH WIND       PRES   REMARKS
DULUTH         MOCLDY    32  24  72 SE5       30.11R WCI  27
6HR MIN TEMP:  30; 6HR MAX TEMP:  37;

ELY            CLEAR     21  19  93 CALM      30.13R
HIBBING        MOCLDY    28  23  81 CALM      30.10S
EVELETH        PTCLDY    28  23  80 E3        30.12S
DULUTH HARBOR  MOCLDY    30  27  86 CALM      30.16R
TWO HARBORS    PTCLDY    30  21  69 N3        30.11S
SILVER BAY     PTCLDY    25  25 100 CALM      30.13R
GRAND MARAIS     N/A     31  26  82 CALM      30.16S
G MARAIS ARPRT CLEAR     21  18  86 CALM      30.13R
$$
MNZ029>031-032-039>041-046>048-054>057-064-231300-
   West Central Minnesota

CITY           SKY/WX    TMP DP  RH WIND       PRES   REMARKS
FERGUS FALLS   CLOUDY    46  27  46 S14       29.93R
WHEATON        LGT RAIN  45  41  87 SE20G26   29.95S
MORRIS         LGT RAIN  43  37  81 SE22G31   29.95F
ALEXANDRIA     CLOUDY    43  29  57 SE14      29.99F
ELBOW LAKE     DRIZZLE   41  36  80 SE17      29.96S
WADENA         CLOUDY    41  27  56 SE12      29.99F
GLENWOOD       DRIZZLE   41  32  70 SE13      29.99F
APPLETON       RAIN      45  37  76 SE18      29.95F
BENSON         LGT RAIN  43  37  81 SE17G23   29.98F
ORTONVILLE     RAIN      43  37  81 SE13G22   29.94R
MADISON        LGT RAIN  48  39  71 SE21G26   29.93S
WILLMAR        LGT RAIN  43  36  75 SE16      30.03R
$$
MNZ033>034-036-042>043-049>051-058-059-231300-
   Central Minnesota

CITY           SKY/WX    TMP DP  RH WIND       PRES   REMARKS
ST CLOUD       CLOUDY    44  26  49 SE8       30.06S
6HR MIN TEMP:  40; 6HR MAX TEMP:  45;

SAUK CENTRE    PTSUNNY   43  28  54 SE14      30.01F
PAYNESVILLE    RAIN      43  29  58 SE12      30.03F
AITKIN         CLOUDY    39  27  60 SE6       30.06S
PINE RIVER     CLOUDY    36  27  69 SE6       30.08S
BRAINERD       CLOUDY    40  25  55 SE3       30.05F
STAPLES        CLOUDY    41  25  52 SE7       30.02F
LONG PRAIRIE   FAIR      41  27  56 E8        30.02F
LITTLE FALLS   CLOUDY    41  27  56 SE8       30.05S
LITCHFIELD     CLOUDY    45  30  57 SE12      30.05S
BUFFALO        CLOUDY    44  26  48 SE12      30.08S
MAPLE LAKE     CLOUDY    45  30  57 SE8       30.07S
$$
MNZ037-044-045-052-053-231300-
   East Central Minnesota

CITY           SKY/WX    TMP DP  RH WIND       PRES   REMARKS
PRINCETON      CLOUDY    43  27  52 SE6       30.08S
MORA           CLOUDY    34  27  75 E3        30.10F
CAMBRIDGE      CLOUDY    43  28  56 SE5       30.07S
MOOSE LAKE     CLOUDY    30  27  86 NE3       30.09S
HINCKLEY       FAIR      30  28  93 CALM      30.11R
CLOQUET        MOCLDY    30  25  80 CALM      30.11S
MCGREGOR       CLOUDY    32  27  80 SE6       30.09S WCI  26
$$
MNZ071>073-080-081-089-090-097-098-231300-
   Southwest Minnesota

CITY           SKY/WX    TMP DP  RH WIND       PRES   REMARKS
MONTEVIDEO     DRIZZLE   43  37  81 S16       29.98F
GRANITE FALLS  CLOUDY    44  35  69 E16       29.99F
CANBY          CLOUDY    46  37  70 SE17      29.93S
MARSHALL       CLOUDY    48  32  53 SE17      29.95F
REDWOOD FALLS  CLOUDY    44  35  70 SE15      30.00F
OLIVIA         LGT RAIN  43  36  75 E15       30.00F
PIPESTONE      LGT RAIN  46  37  71 SE21G28   29.89F
WINDOM         CLOUDY    48  30  49 SE13      30.01R
WORTHINGTON    CLOUDY    46  30  53 E18       29.98F
JACKSON        CLOUDY    46  30  53 SE16      30.01R
TRACY          LGT RAIN  48  33  56 SE16G22   29.98R
SLAYTON        CLOUDY    46  33  61 SE20      29.96F
$$
MNZ065>067-074>077-082>085-091>093-231300-
   South Central Minnesota

CITY           SKY/WX    TMP DP  RH WIND       PRES   REMARKS
MANKATO        CLOUDY    45  30  57 SE13      30.08R
NEW ULM        DRIZZLE   43  36  75 E13       30.04F
ST JAMES       CLOUDY    46  34  61 E13       30.04S
FAIRMONT       CLOUDY    45  30  57 SE17      30.05S
GLENCOE        CLOUDY    45  29  53 SE10      30.06R
FARIBAULT      CLOUDY    45  27  49 SE13      30.09R
OWATONNA       CLOUDY    43  30  61 SE14G20   30.08R
WASECA         CLOUDY    41  27  56 SE12      30.10R
ALBERT LEA     CLOUDY    45  30  57 SE14      30.08R
$$
MNZ078>079-086>088-094>096-231300-
   Southeast Minnesota

CITY           SKY/WX    TMP DP  RH WIND       PRES   REMARKS
ROCHESTER      CLOUDY    40  28  62 SE12      30.11R
6HR MIN TEMP:  38; 6HR MAX TEMP:  41;

RED WING       CLOUDY    43  28  56 SE8       30.11R
DODGE CENTER   CLOUDY    43  30  61 SE12      30.09R
WINONA         PTCLDY    37  32  81 SE5       30.14S
AUSTIN         CLOUDY    43  30  61 SE13      30.08R
PRESTON        MOCLDY    40  29  62 SE9       30.12R
$$
ABBREVIATIONS USED IN REMARKS
   TC - TEMPERATURES IN CELSIUS
  WCI - WIND CHILL INDEX
   HX - HEAT INDEX
  VSB - VISIBILITY
$$


USA.gov is the U.S. government's official web portal to all federal, state and local government web resources and services.